Theta_e
325 324 324 324 323 322 322 323 323 322 322 323 323 323 323 325 325 323 316 322 325 328 327 327 327 325 325 318 313 313 308 303 306 305 306 310 309 311 314 315 319 322 321 324 327
325 324 324 324 323 323 322 322 323 323 322 322 323 322 322 325 318 314 326 329 330 329 322 321 319 322 318 317 315 313 307 306 310 311 309 310 310 311 311 310 315 319 323 324 328
323 324 324 323 323 323 323 322 322 322 322 323 323 322 322 324 306 305 324 330 333 327 323 323 323 319 314 317 314 312 305 310 309 310 310 310 309 312 310 309 313 315 318 321 326
323 323 323 323 323 323 323 322 322 321 322 322 322 322 322 318 289 314 325 328 331 326 322 320 319 313 310 309 313 308 311 311 311 309 308 308 312 311 312 314 316 318 316 320 322
321 322 322 322 322 322 322 323 322 322 322 322 322 321 318 306 302 313 322 323 326 322 318 316 316 312 305 309 311 309 309 311 312 309 308 310 309 311 311 316 317 315 315 316 320
320 320 321 321 321 322 322 322 322 321 322 322 322 321 311 298 311 317 317 325 320 320 318 318 313 315 309 308 307 310 311 311 311 310 310 308 309 309 312 317 316 316 316 318 319
319 319 320 320 320 321 321 321 322 321 321 322 321 317 306 301 316 319 321 323 322 319 316 319 318 313 313 307 311 309 304 307 309 310 309 311 306 307 314 316 315 315 315 317 319
317 319 319 320 320 320 321 321 321 321 320 320 320 314 299 312 318 314 319 320 323 321 319 321 320 314 312 312 308 303 303 297 302 307 308 309 296 305 312 311 311 312 314 314 316
316 317 318 319 319 319 320 320 320 321 321 319 312 307 298 314 308 311 314 314 318 319 318 318 317 310 310 302 298 301 293 295 297 307 304 305 299 306 310 309 308 310 311 312 313
315 316 318 319 319 319 319 319 319 320 317 314 309 299 302 299 307 309 313 318 313 314 310 311 309 302 302 299 289 291 293 294 294 301 304 302 301 306 309 309 308 310 311 312 313
314 315 316 318 318 320 317 312 303 301 305 299 299 298 299 307 311 306 311 313 312 308 299 305 298 294 297 300 297 295 294 293 295 299 298 298 298 300 304 305 306 307 307 309 311
313 314 315 317 318 319 315 304 303 304 295 302 300 301 304 308 299 304 312 303 303 296 301 298 293 299 300 300 298 295 293 293 296 298 297 296 295 300 303 304 306 307 308 309 311
311 313 314 316 317 316 310 306 311 309 294 296 299 299 301 305 297 299 307 305 300 295 298 293 295 299 298 296 295 294 292 292 292 296 298 297 295 298 302 305 306 307 309 310 311
307 311 313 315 310 312 307 310 309 306 287 288 293 298 302 303 295 304 309 304 300 294 296 296 298 297 296 295 296 290 296 295 294 292 287 298 287 295 299 301 303 306 308 309 310
303 308 310 314 308 306 310 311 306 301 275 290 293 305 302 296 298 299 309 302 295 296 297 293 294 293 294 294 297 292 298 296 296 292 291 292 288 293 298 297 300 303 305 308 310
302 306 306 309 309 311 312 309 300 281 274 285 293 292 293 295 295 300 301 303 301 295 296 294 297 296 296 298 298 299 296 295 294 292 284 289 289 289 292 295 298 301 303 306 308
305 305 304 308 303 313 310 299 282 276 287 283 286 291 291 289 292 294 293 292 289 285 285 288 291 295 296 293 296 296 291 283 281 281 281 289 287 291 295 298 299 300 302 305 308
305 305 303 302 311 312 302 288 278 283 283 289 289 289 286 290 290 291 290 287 293 290 287 283 281 291 296 292 290 292 290 283 275 277 281 288 283 289 298 302 303 304 306 307 308
305 300 299 302 305 310 295 282 283 282 286 286 288 284 284 287 289 289 288 287 291 292 284 283 283 292 295 296 294 289 286 292 285 283 283 286 290 295 297 297 299 300 303 305 307
297 296 294 301 304 303 287 285 286 288 289 289 282 286 281 284 286 287 286 291 290 294 294 289 282 289 292 295 295 293 294 284 286 277 276 282 284 286 291 294 297 299 301 302 305
295 288 296 300 303 292 284 285 285 290 291 287 286 284 286 285 287 286 287 290 293 293 293 291 286 285 290 288 288 288 289 289 289 286 279 278 282 293 294 296 297 299 300 302 303
292 282 297 299 285 287 285 286 289 288 292 286 290 288 286 287 286 286 286 289 295 295 289 291 287 281 285 291 293 293 290 290 282 281 285 283 283 295 296 297 298 299 301 303 303
285 287 297 297 281 284 284 284 287 287 289 288 287 288 290 287 283 287 288 293 292 294 291 292 286 278 280 286 289 287 290 291 290 288 283 281 283 295 297 297 298 298 300 302 303
286 282 288 290 290 286 285 283 283 290 289 290 287 289 288 286 286 285 286 288 292 294 296 295 287 284 279 281 286 283 287 289 289 283 283 285 287 292 293 294 296 298 300 301 302
285 284 285 281 284 286 287 285 283 283 288 290 287 288 286 283 283 284 286 287 290 294 294 293 284 285 286 286 287 286 286 288 286 287 283 286 286 290 293 295 297 299 300 300 300
285 285 286 285 285 285 286 284 284 285 286 284 285 288 288 284 285 283 286 287 286 290 291 292 284 285 280 286 286 284 285 287 288 289 288 289 287 295 296 298 296 297 297 297 298
288 290 291 287 285 285 284 285 286 287 287 290 289 288 286 288 291 291 291 292 290 288 288 288 285 282 279 284 284 279 284 286 287 289 288 284 290 295 294 294 293 295 297 297 298
Wind_Speed
20 19 18 17 16 15 13 11 11 11 8 6 6 6 5 5 5 3 7 2 4 2 2 1 1 3 3 4 1 2 6 9 10 8 2 4 5 2 2 3 1 1 0 4 8
22 21 19 19 17 16 14 13 12 12 9 8 7 6 4 3 3 10 4 3 1 3 3 6 6 5 4 4 3 7 9 12 4 6 5 7 4 1 3 2 4 5 3 4 13
24 24 21 20 18 17 16 14 12 12 10 9 8 6 4 3 3 6 4 9 6 3 2 1 5 3 5 4 4 4 12 10 6 5 4 6 5 3 4 7 5 6 8 8 13
23 23 23 21 20 18 17 15 13 14 12 11 9 6 4 4 7 2 6 6 6 5 4 2 3 7 7 8 4 5 5 5 3 3 3 3 2 5 9 11 2 4 1 8 13
22 22 23 23 22 21 19 17 15 15 13 12 10 8 5 7 6 1 6 3 10 7 9 9 8 7 10 7 5 7 5 5 5 1 3 0 8 10 10 13 6 6 7 10 12
22 23 24 23 23 22 21 18 16 15 15 14 12 9 6 12 1 2 1 3 10 12 10 9 7 2 4 4 9 6 9 6 1 1 3 6 13 5 13 17 14 14 17 15 14
22 23 25 25 24 24 22 20 17 16 16 17 15 9 9 15 3 3 5 4 7 13 11 9 4 10 7 5 4 5 5 5 6 6 8 6 16 16 23 20 21 19 17 18 17
25 24 25 27 26 25 24 20 18 17 16 17 14 10 9 3 7 2 3 3 5 7 5 6 3 6 7 8 6 7 5 6 6 14 7 9 19 11 13 18 22 23 21 17 20
25 25 25 28 28 27 25 22 20 17 17 14 8 8 6 6 9 13 2 4 7 6 4 4 5 5 5 9 5 8 9 13 5 9 5 14 12 5 11 16 17 18 17 15 17
26 26 26 28 29 29 27 24 19 16 14 7 2 5 6 10 7 10 7 7 5 11 7 9 7 9 9 12 10 10 11 7 11 6 8 14 18 17 16 18 20 21 20 20 20
27 27 27 28 31 31 25 12 9 9 14 7 8 3 5 4 6 8 10 8 5 12 12 16 14 18 21 20 9 2 9 10 3 1 7 15 20 20 20 21 22 22 22 22 22
26 27 28 27 31 33 22 16 27 7 15 9 5 6 5 6 7 10 14 14 13 18 17 8 20 18 15 15 16 11 9 9 7 7 11 18 26 22 23 24 22 23 23 24 22
29 27 29 28 31 27 25 31 19 21 9 10 6 15 8 9 6 18 20 15 18 21 23 14 2 20 17 16 17 15 15 13 12 11 16 19 22 19 20 22 21 23 25 24 23
34 26 30 31 26 23 25 28 19 5 6 12 13 9 11 8 7 14 15 15 9 22 19 16 7 16 16 18 15 14 12 13 10 6 7 1 11 15 13 16 17 19 18 21 23
35 26 23 36 19 25 18 24 16 5 9 20 17 14 17 19 13 11 17 9 14 13 13 9 14 11 21 18 16 9 7 11 10 7 5 11 8 4 8 11 19 19 19 20 22
31 30 28 22 18 22 23 25 13 9 13 14 18 24 25 20 10 14 19 6 4 8 11 6 1 8 8 8 16 7 5 3 3 5 11 13 12 18 14 17 14 15 14 17 19
31 35 27 12 22 18 23 19 17 14 17 13 19 26 33 18 20 17 27 21 15 11 15 5 5 2 5 12 3 12 12 4 6 7 9 2 13 25 12 11 15 23 23 20 16
32 29 20 10 17 22 18 16 17 16 16 11 18 26 26 25 19 22 26 23 24 17 14 14 10 13 11 13 10 18 14 6 8 7 5 5 15 10 6 7 12 14 19 17 15
25 13 14 16 15 19 21 31 20 21 14 20 23 25 13 18 14 17 25 26 25 27 14 16 15 8 9 6 12 8 18 13 2 1 4 8 14 20 20 22 20 21 17 19 12
13 14 15 21 20 17 17 22 17 19 21 24 16 19 18 25 18 21 25 24 23 28 18 9 6 6 9 5 5 10 12 7 8 7 8 11 16 18 8 12 18 17 15 11 12
13 8 6 15 13 19 25 16 10 18 25 25 17 14 18 27 25 28 29 11 30 29 19 12 4 6 10 13 16 5 13 7 7 10 7 8 13 10 14 13 10 13 10 15 15
9 9 6 14 16 18 16 11 16 30 23 6 11 13 22 30 25 25 26 22 27 25 29 12 4 7 14 1 5 20 17 19 9 8 10 11 19 2 8 11 15 19 19 17 14
6 4 4 14 14 11 10 8 12 30 26 16 13 6 16 24 15 22 22 17 11 24 26 16 7 7 4 4 4 12 16 20 19 4 13 13 16 5 9 10 12 15 19 20 24
6 8 6 6 9 6 13 9 15 23 18 14 16 11 16 20 4 23 16 10 12 22 15 20 8 18 16 7 14 15 21 22 22 11 23 18 28 26 22 23 20 19 20 21 22
2 4 1 7 6 10 8 7 23 12 4 18 10 17 23 13 8 11 15 9 13 24 16 14 16 13 17 4 13 13 23 25 25 32 18 27 24 26 30 20 19 21 24 25 24
5 3 2 4 10 9 9 14 26 13 14 13 16 26 23 19 18 25 18 18 16 19 22 14 3 11 5 10 8 7 12 19 26 26 24 27 28 30 27 21 20 22 22 23 22
1 1 1 7 9 9 8 11 22 20 4 17 25 23 22 24 17 20 11 20 13 22 24 14 8 9 10 9 5 10 27 22 19 24 24 23 31 21 18 18 17 20 21 20 20
Wind_Direction
215 214 211 211 210 214 219 227 221 203 213 218 238 261 287 320 307 228 226 258 238 220 267 188 171 127 127 111 122 210 218 233 234 201 199 143 198 119 311 262 227 163 251 96 141
214 212 211 212 208 211 212 215 220 202 202 214 217 224 252 299 269 251 205 261 211 204 246 212 180 160 131 137 154 211 222 230 227 210 220 167 210 186 257 187 204 208 182 157 161
218 209 208 208 208 206 208 212 211 198 203 197 193 207 207 202 271 253 232 203 205 219 293 354 165 175 167 182 167 177 230 230 214 211 207 182 202 201 230 253 245 247 198 173 179
224 214 207 204 204 205 204 206 203 201 198 190 189 196 203 193 222 42 48 193 128 187 191 160 187 191 187 183 161 207 230 236 225 166 171 216 149 221 229 256 346 234 147 190 203
228 218 209 202 200 200 201 203 201 197 191 182 185 188 187 206 240 5 332 355 179 166 202 206 192 195 196 187 150 221 192 210 240 86 224 230 249 272 253 252 243 220 240 234 229
225 222 212 205 199 196 196 197 197 194 186 184 184 176 205 220 40 333 322 144 183 182 187 202 224 211 146 178 208 180 223 227 307 109 221 241 250 241 250 256 262 246 245 251 235
222 219 218 208 199 196 193 193 195 196 190 184 182 183 216 224 104 57 136 173 189 191 185 201 234 198 155 158 161 155 240 246 222 238 244 233 253 237 253 260 263 259 254 260 246
227 218 214 209 200 193 190 190 189 189 189 191 182 195 233 248 216 305 129 130 185 185 212 196 222 202 215 132 142 195 217 225 203 218 219 199 260 249 253 264 261 268 267 256 256
224 220 210 210 200 191 187 183 185 178 178 174 160 203 229 141 194 216 206 167 157 189 158 161 209 217 194 194 188 197 220 214 216 201 213 211 270 243 253 263 264 266 275 273 265
225 221 214 205 201 191 183 177 180 169 177 147 332 177 185 212 182 182 169 180 152 170 184 184 208 214 215 199 211 219 218 219 222 151 215 249 254 264 263 267 271 276 274 271 270
226 219 215 206 201 190 177 156 159 185 187 178 178 181 152 132 140 172 168 165 135 184 189 190 201 209 208 211 212 187 232 246 256 275 304 264 269 271 271 265 263 267 271 270 268
229 222 215 211 200 193 180 185 186 151 179 203 186 164 155 174 157 182 175 174 189 188 184 188 219 214 216 219 223 223 241 239 270 267 283 280 275 274 271 263 261 262 266 269 266
242 222 217 211 201 197 189 183 169 155 161 188 160 198 158 186 189 187 188 190 195 192 192 197 171 207 209 202 216 232 237 240 251 284 271 279 283 268 264 260 254 253 257 263 267
262 216 220 211 203 200 196 174 164 162 166 174 184 197 171 171 223 176 202 180 189 202 194 224 184 188 204 210 201 226 222 237 238 256 264 159 287 285 281 274 260 254 256 262 262
259 234 240 208 202 211 180 166 150 81 220 162 167 149 166 181 132 186 180 196 192 185 186 188 193 186 208 209 200 213 215 211 229 237 287 248 278 239 229 262 272 268 261 261 258
230 240 240 215 208 207 161 162 126 213 194 162 149 169 165 193 176 140 175 180 164 183 231 214 19 203 190 188 192 174 172 179 235 265 259 245 243 270 251 251 261 274 265 264 266
221 226 218 226 201 185 162 146 198 198 152 154 162 170 176 169 170 171 178 185 175 167 200 176 198 177 180 185 147 186 180 180 203 205 245 224 214 250 297 279 267 283 282 282 284
216 217 219 239 216 173 165 179 209 155 160 164 160 167 181 158 182 182 176 190 203 201 167 187 201 193 179 200 184 192 188 187 204 202 245 203 234 255 246 272 271 269 280 285 283
216 209 217 225 228 180 181 195 208 132 138 158 147 165 159 170 160 177 188 196 197 197 190 197 216 189 190 164 164 176 218 214 345 136 264 228 259 274 261 265 269 268 269 287 302
201 207 222 215 213 202 203 189 175 140 147 150 152 175 162 173 166 184 189 200 200 202 214 179 177 195 169 164 202 199 159 162 210 218 231 239 255 253 265 281 290 298 302 301 320
200 207 226 207 208 224 197 197 118 154 145 170 146 153 182 174 185 187 188 172 195 190 195 171 157 148 150 211 182 176 196 204 193 218 232 263 247 240 254 263 289 309 312 307 317
186 201 159 172 221 193 195 158 146 161 162 117 142 151 179 181 184 188 197 201 195 180 190 175 130 168 193 126 235 222 216 199 197 199 238 265 265 214 269 273 291 299 300 315 302
178 165 242 174 231 191 128 96 147 158 160 147 164 168 172 174 180 198 200 199 194 180 183 176 185 138 161 237 215 220 214 224 227 278 232 222 254 234 259 261 252 288 308 310 310
134 171 201 223 224 201 144 141 136 170 166 161 130 129 146 166 157 188 188 172 197 186 179 163 183 205 206 193 163 206 212 214 214 229 238 229 250 269 269 271 291 304 302 297 298
155 184 236 175 168 146 106 134 144 153 166 170 160 158 150 155 145 182 168 135 181 186 183 186 214 211 233 229 188 207 208 209 213 225 220 248 251 266 269 286 308 303 294 295 295
153 175 59 104 146 143 153 167 159 149 152 179 164 171 171 159 180 181 166 173 170 181 189 194 230 190 219 208 213 208 212 219 224 234 239 254 269 253 280 302 293 292 298 297 302
149 37 99 138 150 153 165 149 165 146 230 187 174 162 178 190 184 166 165 158 164 171 184 179 154 162 224 184 180 268 227 215 221 224 226 235 240 273 285 294 298 303 301 303 310